Change the Weather History Date:

Sunday, August 5, 2012

  Actual Average Record
Temperature  
Mean Temperature 63 °F 60 °F  
Max Temperature 68 °F 69 °F 84 °F (2008)
Min Temperature 58 °F 51 °F 40 °F (1974)
Degree Days  
Heating Degree Days 2 5  
Month to date heating degree days 25  
Since 1 June heating degree days 513  
Since 1 July heating degree days 219  
Cooling Degree Days 0 0  
Month to date cooling degree days 0  
Year to date cooling degree days 11  
Since 1 June cooling degree days 10  
Growing Degree Days 14 (Base 50)    
Moisture  
Dew Point 56 °F    
Average Humidity 83    
Maximum Humidity 97    
Minimum Humidity 65    
Precipitation  
Precipitation 0.00 in 0.06 in 1.41 in (2001)
Month to date precipitation 0.29  
Year to date precipitation 54.52  
Sea Level Pressure  
Sea Level Pressure 29.96 in    
Wind  
Wind Speed 5 mph (SSW)    
Max Wind Speed 14 mph    
Max Gust Speed 18 mph    
Visibility 7 miles    
Events      
T = Trace of Precipitation, MM = Missing Value Source: NWS Daily Summary

Daily Weather History Graph

Daily Weather History Graph

Search for Another Location

Airport or City:

Trip Planner

Search our weather history database for the weather conditions in past years. The results will help you decide how hot, cold, wet, or windy it might be!

Date:

Astronomy

Aug. 05, 2012 Rise Set
Actual Time 6:00 AM PDT 8:46 PM PDT
Civil Twilight 5:24 AM PDT 9:22 PM PDT
Nautical Twilight 4:39 AM PDT 10:07 PM PDT
Astronomical Twilight 3:45 AM PDT 11:00 PM PDT
Moon 10:02 PM PDT (8/5) 10:19 AM PDT (8/5)
Length of Visible Light 15h 57m
Length of Day
14h 46m
Waning Gibbous, 85% of the Moon is Illuminated
Aug 5
Waning Gibbous
Aug 9
Last Quarter
Aug 17
New
Aug 24
First Quarter
Aug 31
Full

Hourly Weather History & Observations

Time (PDT) Temp. Dew Point Humidity Pressure Visibility Wind Dir Wind Speed Gust Speed Precip Events Conditions
12:53 AM 64.0 °F 57.0 °F 78% 29.86 in 10.0 mi Calm Calm - N/A   Clear
1:53 AM 63.0 °F 55.9 °F 78% 29.86 in 10.0 mi Calm Calm - N/A   Clear
2:53 AM 62.1 °F 55.9 °F 80% 29.86 in 10.0 mi Calm Calm - N/A   Clear
3:53 AM 64.0 °F 55.9 °F 75% 29.86 in 10.0 mi East 4.6 mph - N/A   Clear
4:53 AM 61.0 °F 55.0 °F 81% 29.87 in 10.0 mi Calm Calm - N/A   Clear
5:53 AM 60.1 °F 55.0 °F 83% 29.89 in 10.0 mi South 5.8 mph - N/A   Clear
6:53 AM 60.1 °F 55.0 °F 83% 29.91 in 10.0 mi South 4.6 mph - N/A   Clear
7:53 AM 60.1 °F 55.0 °F 83% 29.93 in 10.0 mi South 4.6 mph - N/A   Clear
8:53 AM 64.9 °F 55.9 °F 73% 29.93 in 10.0 mi SW 3.5 mph - N/A   Clear
9:53 AM 66.9 °F 57.0 °F 70% 29.94 in 10.0 mi SW 6.9 mph - N/A   Clear
10:53 AM 64.9 °F 55.9 °F 73% 29.96 in 10.0 mi Variable 5.8 mph - N/A   Clear
11:24 AM 64.4 °F 55.4 °F 73% 29.97 in 10.0 mi South 9.2 mph - N/A   Partly Cloudy
11:53 AM 64.9 °F 55.9 °F 73% 29.98 in 10.0 mi SW 10.4 mph - N/A   Scattered Clouds
12:53 PM 66.0 °F 57.0 °F 73% 29.98 in 10.0 mi SSW 10.4 mph 17.3 mph N/A   Clear
1:26 PM 64.4 °F 55.4 °F 73% 29.98 in 10.0 mi SSW 9.2 mph - N/A   Partly Cloudy
1:43 PM 64.4 °F 55.4 °F 73% 29.98 in 10.0 mi SSW 9.2 mph - N/A   Mostly Cloudy
1:53 PM 64.9 °F 57.0 °F 75% 29.98 in 10.0 mi Variable 6.9 mph - N/A   Scattered Clouds
2:53 PM 66.9 °F 57.0 °F 70% 29.98 in 10.0 mi SSW 9.2 mph - N/A   Clear
3:35 PM 64.4 °F 57.2 °F 77% 29.98 in 10.0 mi SW 9.2 mph - N/A   Partly Cloudy
3:53 PM 64.0 °F 57.0 °F 78% 29.98 in 10.0 mi SSW 9.2 mph - N/A   Mostly Cloudy
4:53 PM 62.1 °F 57.0 °F 84% 29.99 in 10.0 mi South 6.9 mph - N/A   Overcast
5:53 PM 62.1 °F 57.0 °F 84% 29.98 in 10.0 mi South 4.6 mph - N/A   Overcast
6:10 PM 60.8 °F 57.2 °F 88% 29.98 in 10.0 mi South 6.9 mph - N/A   Overcast
6:53 PM 60.1 °F 57.0 °F 90% 29.98 in 4.0 mi Variable 5.8 mph - N/A   Overcast
7:53 PM 60.1 °F 57.0 °F 90% 29.97 in 3.0 mi Variable 3.5 mph - N/A   Overcast
8:11 PM 60.8 °F 57.2 °F 88% 29.97 in 2.5 mi South 5.8 mph - N/A   Overcast
8:35 PM 59.0 °F 57.2 °F 94% 29.98 in 1.2 mi South 5.8 mph - N/A   Overcast
8:46 PM 59.0 °F 57.2 °F 94% 29.97 in 1.5 mi SSW 4.6 mph - N/A   Overcast
8:53 PM 59.0 °F 57.0 °F 93% 29.98 in 1.8 mi SSW 4.6 mph - N/A   Overcast
9:01 PM 59.0 °F 57.2 °F 94% 29.98 in 2.5 mi SSW 5.8 mph - N/A   Overcast
9:53 PM 59.0 °F 57.0 °F 93% 30.00 in 2.0 mi South 4.6 mph - N/A   Overcast
10:03 PM 57.2 °F 55.4 °F 94% 30.00 in 1.5 mi South 6.9 mph - N/A   Overcast
10:13 PM 57.2 °F 55.4 °F 94% 30.00 in 1.2 mi South 6.9 mph - N/A   Overcast
10:53 PM 57.9 °F 55.9 °F 93% 30.01 in 1.2 mi South 4.6 mph - N/A   Overcast
11:35 PM 57.2 °F 55.4 °F 94% 30.02 in 1.5 mi South 8.1 mph - N/A   Overcast
11:42 PM 57.2 °F 55.4 °F 94% 30.02 in 1.2 mi South 8.1 mph - N/A   Overcast
11:50 PM 57.2 °F 55.4 °F 94% 30.03 in 1.5 mi South 6.9 mph 16.1 mph N/A   Overcast
11:53 PM 57.9 °F 57.0 °F 97% 30.03 in 1.5 mi Variable 6.9 mph 16.1 mph N/A   Overcast